Starlink 31546

operational
NORAD ID: 59470 Int'l Des: 2024-068 Owner: SPXS Country: US Constellation: starlink
LEOCIRCULAR

About Starlink 31546

Description loading...

Live Position

Loading 3D Globe...

Upcoming Passes

Altitude History

Altitude vs Time

uPlot chart will show altitude changes over time

Two-Line Element Set

1 59470U 24068R 25303.63037038 .00001099 00000-0 49468-4 0 9992
2 59470 43.0009 45.4127 0001505 289.8286 70.2403 15.27567661 88671
Epoch: Oct 30, 2025 • Age: 23 hours

Current Status

Altitude 489.6 km
Velocity 7.62 km/s
Sub-Earth Point -26.85°S, 1.62°E
Launch Date Apr 10, 2024
Age 1.5 years
Type internet

Technical Details

Classification Payload
Mass 730.00 kg
Dry Mass 700.00 kg
Total Mass 730.00 kg
Length 0.30 m
Diameter 4.10 m
Span 29.00 m
Shape Box + pan
Manufacturer SPXS
Bus Type Starlink V2M
Phase Status In Orbit
Owner/State SPXS/US

Large Constellations

Loading constellations...